    Observer details:
    246 Klet Observatory-KLENOT.  Observers M. Tichy, J. Ticha.  Measurer M. Tichy.
        1.06-m KLENOT Telescope + CCD.
    587 Sormano.  Observers A. Fumagalli, P. Sicoli, A. Testa.  Measurer P. Sicoli.
        0.5-m f/6.8 reflector + CCD.
    595 Farra d'Isonzo.  Observers U. Montanar, E. Pettarin.  Measurer E. Pettarin.
        0.61-m f/4.0 reflector + CCD.
    703 Catalina Sky Survey.  Observer A. R. Gibbs.  Measurers B. M. Africano,
        E. J. Christensen, D. C. Fuls, A. R. Gibbs, A. D. Grauer, J. A. Johnson,
        R. A. Kowalski, S. M. Larson, G. J. Leonard, R. L. Seaman, F. C. Shelly.
        0.68-m Schmidt + 10K CCD.
    C47 Nonndorf.  Observer G. Dangl.  0.25-m f/4.8 reflector + CCD.
    H06 iTelescope Observatory, Mayhill.  Observer H. Sato.  0.43-m f/6.8
        astrograph + CCD + f/4.5 focal reducer.
    I52 Steward Observatory, Mt. Lemmon Station.  Observer A. R. Gibbs.  Measurers
        B. M. Africano, E. J. Christensen, D. C. Fuls, A. R. Gibbs, A. D. Grauer,
        J. A. Johnson, R. A. Kowalski, S. M. Larson, G. J. Leonard, R. L. Seaman,
        F. C. Shelly.  1.0-m reflector + CCD.
    J95 Great Shefford.  Observer P. Birtwhistle.  0.40-m f/6.0 Schmidt-Cassegrain
        + CCD.
    K88 GINOP-KHK, Piszkesteto.  Observer C. Kalup.  Measurer K. Sarneczky.
        0.60-m Schmidt + CCD.
    Q62 iTelescope Observatory, Siding Spring.  Observers H. Sato, D. Denisenko,
        P. Kachalin, I. Larin.  Measurers H. Sato, D. Denisenko, I. Larin.  0.09-m
        f/5.6 refractor + CCD, 0.51-m f/6.8 astrograph + CCD + f/4.5 focal reducer.
    
    Orbital elements:
    2018 GE3                                                 Earth MOID = 0.0010 AU
    Epoch 2018 Mar. 23.0 TT = JDT 2458200.5                 MPC
    M 333.93562              (2000.0)            P               Q
    n   0.39238622     Peri.  300.16415     +0.82057117     +0.56781635
    a   1.8478224      Node    25.41168     -0.45812217     +0.72162124
    e   0.8279576      Incl.    8.73569     -0.34174116     +0.39603962
    P   2.51           H   23.6           G   0.15           U   6
    Residuals in seconds of arc
    180414 703  0.1-  0.1+    180414 Q62  0.3-  0.1-    180414 246  0.7+  0.3+
    180414 703  0.1-  0.1+    180414 Q62  0.7+  0.6-    180414 246  0.7+  0.2+
    180414 703  0.2+  0.1+    180414 Q62  0.3-  0.0     180414 246  1.1+  0.5+
    180414 703  0.1-  0.0     180414 Q62  1.4+  0.2+    180414 K88  0.1-  0.3-
    180414 H06  0.1-  0.3+    180414 Q62  0.3-  0.1-    180414 K88  0.7-  0.5-
    180414 H06  0.4+  0.0     180414 587  0.4+  0.3+    180414 K88  0.8-  0.4-
    180414 H06  0.4+  0.3+    180414 587  0.6-  0.4-    180414 K88  0.6-  0.2+
    180414 H06  0.2+  0.2+    180414 595  0.2+  0.2+    180414 K88  0.4-  0.1-
    180414 H06  0.1-  0.1+    180414 595  0.5+  0.4+    180414 K88  0.4-  0.3+
    180414 I52  0.1-  0.0     180414 595  0.1+  0.2+    180414 K88  0.3-  0.0
    180414 I52  0.0   0.0     180414 595  0.0   0.4-    180414 K88  0.4-  0.0
    180414 I52  0.1-  0.1-    180414 595  0.9+  1.1+    180414 K88  0.1-  0.1-
    180414 I52  0.1-  0.0     180414 246  0.1+  0.0     180414 K88  0.2-  0.3-
    180414 I52  0.2+  0.1+    180414 246  0.0   0.2+    180414 K88  0.1+  0.2-
    180414 I52  0.3-  0.2-    180414 246  0.5+  0.3-    180414 K88  0.0   0.1+
    180414 I52  0.1-  0.3-    180414 246  0.3-  0.4-    180414 K88  0.2+  0.0
    180414 I52  0.0   0.1-    180414 246  0.3-  0.3-    180414 K88  0.2+  0.4+
    180414 I52  0.1-  0.1+    180414 246  0.0   0.1+    180414 K88  0.0   0.4+
    180414 I52  0.2-  0.2-    180414 246  0.4+  0.1-    180414 K88  0.1+  0.0
    180414 I52  0.1-  0.0     180414 246  0.6-  0.1-    180414 C47  0.3-  0.4-
    180414 I52  0.1-  0.0     180414 246  0.9-  0.2-    180414 J95  0.1+  0.0
    180414 I52  0.2-  0.1-    180414 246  0.1-  0.4-    180414 C47  0.3-  0.1-
    180414 I52  0.1-  0.1+    180414 246  0.1-  0.2-    180414 J95  0.0   0.0
    180414 I52  0.1+  0.2+    180414 246  1.0+  0.1+    180414 C47  0.2-  0.1-
    180414 I52  0.2+  0.2+    180414 K88  0.7-  0.2-    180414 C47  0.1-  0.1-
    180414 Q62  0.4-  0.2-    180414 246  0.1+  0.2-    180414 J95  0.1+  0.3+
    180414 Q62  0.3-  0.2-    180414 246  0.2+  0.8+    180414 C47  0.0   0.2+
    180414 Q62  0.3-  0.2-    180414 246  1.3+  0.2+    180414 J95  0.1-  0.3-
    180414 Q62 (2.0-  1.7-)   180414 K88  0.1-  0.1+    180414 C47  0.0   0.1+
    
    Ephemeris:
    2018 GE3                 a,e,i = 1.85, 0.83, 9                   q = 0.3179
    Date    TT    R. A. (2000) Decl.     Delta      r     Elong.  Phase     V
    2018 03 15    14 27 58.8 -07 56 13   0.5602  1.4527   136.5    28.1    24.4
    ...
    2018 03 30    14 35 18.3 -08 05 50   0.2823  1.2495   149.3    24.1    22.5
    ...
    2018 04 07    14 38 12.0 -07 59 52   0.1418  1.1321   156.2    20.9    20.7
    ...
    2018 04 13    14 43 43.4 -07 19 03   0.03888 1.0393   160.3    19.0    17.6
    2018 04 14    14 48 58.7 -06 34 53   0.02184 1.0234   159.8    19.8    16.3
    2018 04 15    15 30 01.1 -00 38 58   0.0049241.0074   149.2    30.6    13.4
    ...
    2018 04 21    02 35 09.3 +08 30 04   0.09780 0.9089    10.6   168.2    33.7
    ...
    2018 04 29    02 35 40.4 +08 24 12   0.2387  0.7703     6.5   171.4
    ...
    2018 05 14    02 37 16.5 +09 38 58   0.5518  0.4935    14.0   150.3    29.3
    
    A. U. Tomatic                (C) Copyright 2018 MPC           M.P.E.C. 2018-G94
    

    Read MPEC 2018-G93 Read MPEC 2018-G95


    MPEC number:

    Enter an MPEC number in one of the following forms:

    • 1997-B01 (the full form)
    • J97B01 (the packed version of the full form)
    • B01 (the abbreviated form)